Regional Weather Roundup
Issued by NWS

Home | Current Version | Previous Version | Text Only | Print | Product List | Glossary On
Versions: 1 2 3 4 5 6 7 8 9 10 11 12 13 14 15 16 17 18 19 20 21 22 23 24 25 26 27 28 29 30 31 32 33 34 35 36 37 38 39 40 41 42 43 44 45 46 47 48 49 50
000
ASUS43 KMKX 171200
RWRWI

WISCONSIN REGIONAL WEATHER ROUNDUP
NATIONAL WEATHER SERVICE MILWAUKEE/SULLIVAN WI
700 AM CDT THU APR 17 2014

NOTE: "FAIR" INDICATES FEW OR NO CLOUDS BELOW 12,000 FEET WITH NO
SIGNIFICANT WEATHER AND/OR OBSTRUCTIONS TO VISIBILITY.

WIZ001-002-006>008-014>016-023>028-171300-
NORTHWEST WISCONSIN

CITY           SKY/WX    TMP DP  RH WIND       PRES   REMARKS
SUPERIOR ARPT  CLOUDY    30  28  93 NE14      30.15R WCI  20
ASHLAND        LGT SNOW  28  28 100 NE12      30.11R FOG     WCI  18
6HR MIN TEMP:  28; 6HR MAX TEMP:  28; 6HR PCP:  0.08;

HAYWARD        CLOUDY    29  26  89 VRB6      30.07R WCI  23
6HR MIN TEMP:  29; 6HR MAX TEMP:  30; 6HR PCP:  0.18;

SIREN          CLOUDY    30  28  95 N6        30.10R FOG     WCI  24
RICE LAKE      MIX PCPN  32  31  95 N7        30.06R WCI  26
LADYSMITH      LGT SNOW  33  33  98 CALM      30.03R
EAU CLAIRE     CLOUDY    36  35  96 N5        30.03R WCI  32
6HR MIN TEMP:  36; 6HR MAX TEMP:  39; 6HR PCP:  0.08;

MENOMONIE      CLOUDY    35  35  99 NW12      30.03R FOG     WCI  26
NEW RICHMOND   CLOUDY    30  30  99 N12       30.09R WCI  20
OSCEOLA        CLOUDY    30  30  98 NW8       30.13R WCI  23
$$

WIZ003>005-009-010-017-018-171300-
NORTH CENTRAL WISCONSIN

CITY           SKY/WX    TMP DP  RH WIND       PRES   REMARKS
WOODRUFF       LGT SNOW  32  31  94 SE7       30.02S WCI  26
RHINELANDER    HVY SNOW  31  30  96 SE12      30.03S VSB 1/4 WCI  22
6HR MIN TEMP:  29; 6HR MAX TEMP:  31; 6HR PCP:  0.22;

EAGLE RIVER    SNOW      31  31 100 SE8       30.04R VSB 1/2 WCI  23
LAND O LAKES   SNOW      31  30  97 SE8G17    30.05S VSB 1/2 WCI  23
PHILLIPS       LGT SNOW  32  31  97 SE3       30.00S
TOMAHAWK       SNOW      32  31  96 CALM      30.02S VSB 1/2
MEDFORD        LGT SNOW  32  32  99 E5        30.00R VSB 3/4 WCI  27
MERRILL        SNOW      32  32  99 CALM      30.03R VSB<1/4
$$

WIZ029-030-035-036-043>047-171300-
CENTRAL WISCONSIN

CITY           SKY/WX    TMP DP  RH WIND       PRES   REMARKS
WAUSAU         SNOW      33  32  96 E8        30.02R VSB 1/2 WCI  26
6HR MIN TEMP:  32; 6HR MAX TEMP:  34; 6HR PCP:  0.07;

MOSINEE        LGT SNOW  32  32 100 NE8       30.03R WCI  25
MARSHFIELD     LGT SNOW  34  32  92 NE10      30.00R VSB 3/4 WCI  26
6HR MIN TEMP:  34; 6HR MAX TEMP:  40; 6HR PCP:  0.02;

STEVENS POINT  LGT RAIN  33  30  89 E10       30.01R WCI  25
WAUPACA        CLOUDY    39  32  75 E12       30.01F WCI  32
WAUTOMA        NOT AVBL
WISC RAPIDS    LGT RAIN  39  30  70 NE3       30.01R
6HR MIN TEMP:  38; 6HR MAX TEMP:  42; 6HR PCP:  0.01;

CAMP DOUGLAS   CLOUDY    45  32  61 CALM      29.97R
$$

WIZ011>013-019>022-031-037>040-048>050-171300-
NORTHEAST WISCONSIN

CITY           SKY/WX    TMP DP  RH WIND       PRES   REMARKS
ANTIGO         LGT SNOW  32  31  98 E14       30.05R WCI  22
STURGEON BAY   CLOUDY    34  28  80 SE14G24   30.13F WCI  24
6HR MIN TEMP:  34; 6HR MAX TEMP:  39;

GREEN BAY      CLOUDY    37  30  75 SE20      30.09R WCI  27
6HR MIN TEMP:  35; 6HR MAX TEMP:  39; 6HR PCP:  0.05;

MANITOWOC      NOT AVBL
APPLETON       CLOUDY    36  28  75 SE17G24   30.05R WCI  25
CLINTONVILLE   LGT RAIN  34  32  93 SE7       30.05S WCI  28
OSHKOSH        CLOUDY    39  29  67 SE16      30.03S WCI  30
6HR MIN TEMP:  38; 6HR MAX TEMP:  40;

$$

WIZ032>034-041-042-053>061-171300-
SOUTHWEST WISCONSIN

CITY           SKY/WX    TMP DP  RH WIND       PRES   REMARKS
LA CROSSE      CLOUDY    43  37  79 SW6       29.99R
6HR MIN TEMP:  42; 6HR MAX TEMP:  50; 6HR PCP: TRACE;

SPARTA         CLOUDY    43  37  80 W9G16     29.97R
VIROQUA        CLOUDY    37  37 100 SW13      29.98R WCI  29
BOSCOBEL       CLOUDY    39  34  82 SW15G22   30.05R WCI  31
6HR MIN TEMP:  39; 6HR MAX TEMP:  49;

PRAIRIE DU CHI CLOUDY    37  32  81 W13G18    30.05R WCI  29
PLATTEVILLE    CLOUDY    39  34  83 SW15G25   30.04R WCI  30
$$

WIZ056-057-062-063-064-067-068-171300-
SOUTH CENTRAL WISCONSIN

CITY           SKY/WX    TMP DP  RH WIND       PRES   REMARKS
BARABOO/DELLS  CLOUDY    42  30  63 S13       29.97R
LONE ROCK      NOT AVBL
WATERTOWN      CLOUDY    42  29  58 S13G18    30.03R
MADISON        CLOUDY    43  30  60 S16       30.01R
6HR MIN TEMP:  43; 6HR MAX TEMP:  45;

MIDDLETON      CLOUDY    43  29  57 S10G16    30.00S
MONROE         CLOUDY    42  31  67 S16G24    30.02R
6HR MIN TEMP:  40; 6HR MAX TEMP:  44;

JANESVILLE     CLOUDY    45  28  53 S17G23    30.05R
$$

WIZ051-052-058>065-066-070>072-171300-
SOUTHEAST WISCONSIN

CITY           SKY/WX    TMP DP  RH WIND       PRES   REMARKS
MILWAUKEE      CLOUDY    40  30  67 SE16      30.10R WCI  31
6HR MIN TEMP:  39; 6HR MAX TEMP:  41;

WAUKESHA       CLOUDY    37  30  75 SE12      30.07S WCI  30
MILWAUKEE/TIMM CLOUDY    39  28  65 SE14        N/A  WCI  31
RACINE         CLOUDY    39  31  72 S18       30.12R WCI  30
6HR MIN TEMP:  38; 6HR MAX TEMP:  40;

BURLINGTON     CLOUDY    42  28  58 S12G18    30.07S
KENOSHA        MOCLDY    41  31  67 S8        30.10R
6HR MIN TEMP:  40; 6HR MAX TEMP:  42;

FOND DU LAC    CLOUDY    38  29  70 SE15      30.03S WCI  29
6HR MIN TEMP:  38; 6HR MAX TEMP:  41;

SHEBOYGAN      CLOUDY    37  28  70 SE15G29   30.10R WCI  28
6HR MIN TEMP:  36; 6HR MAX TEMP:  39; 6HR PCP: TRACE;

WEST BEND      CLOUDY    37  28  70 SE9       30.07R WCI  31
JUNEAU         CLOUDY    40  26  56 SE15G21   30.04R WCI  32
$$

LSZ147-162-171300-
LAKE SUPERIOR

STATION/POSITION TIME  TEMP    WIND        PRES    WAVE
                       AIR SEA DIR/SP/G            HT/PER
                 (UTC) (F)     (DEG/KT/KT) (MB)    (FT/S)
DEVILS ISLAND    1100   31      60/ 29/ 35 1021.0F
PORT WING        1100   29      60/ 10/ 15 1019.6
SAXON HARBOR     1100           50/ 12/ 15 1019.0S
$$

LMZ867-665-643>646-171300-
LAKE MICHIGAN

STATION/POSITION TIME  TEMP    WIND        PRES    WAVE
                       AIR SEA DIR/SP/G            HT/PER
                 (UTC) (F)     (DEG/KT/KT) (MB)    (FT/S)
NORTHPORT PIER   1100   35     100/ 10/ 12 1022.4S
SISTER BAY       1123   35     160/ 12/ 15   N/A
SHEBOYGAN LAKESH 1100   38     140/ 27/ 31 1019.5F
PORT WASHINGTON  1100   38     150/ 16/ 23 1019.6
MILWAUKEE LAKESH 1100   39     150/ 17/ 20   N/A
KENOSHA   LAKESH 1100   39     160/ 21/ 25   N/A
$$

TC  - TEMPERATURE IN CELSIUS
VSB - VISIBILITY IN STATUTE MILES
WCI - WIND CHILL INDEX
HX  - HEAT INDEX




USA.gov is the U.S. government's official web portal to all federal, state and local government web resources and services.